Home > Weather > Netherlands > The Hague > Past weeks

Flag for Netherlands Weather past 2 weeks in The Hague, Netherlands

54 °F


Feels Like: 49 °F
Forecast: 50 / 52 °F
Wind: 18 mph from Southwest

Location: Rotterdam Zestienhoven Airport

Current Time: Dec 2, 2015 at 12:45:47 AM

Latest Report: Dec 1, 2015 at 11:55 PM

Visibility: N/A

Pressure: 30.24 "Hg

Humidity: 77%

Dew point: 46 °F

Location of The HagueLocation

Historic Weather in The Hague — Graph


The Hague temperature yesterday

Maximum temperature yesterday: 55 °F (at 3:25 PM)
Minimum temperature yesterday: 46 °F (at 1:55 AM)
Average temperature yesterday: 50 °F

Past Weeks' High & Low Weather Summary

High59 °F (Nov 17, 3:55 PM)100% (Nov 17, 12:55 AM)30.24 "Hg (Nov 17, 12:55 AM)
Low28 °F (Nov 23, 2:25 AM)57% (Nov 30, 8:25 AM)29.27 "Hg (Nov 21, 9:25 AM)
Average46 °F85%29.83 "Hg
* Reported Nov 16 11:25 PM — Dec 1 10:55 PM, The Hague, Weather by CustomWeather, © 2015

Note: Actual official high and low records may vary slightly from our data, if they occured in-between our weather recording intervals... More about our weather records


The Hague weather history for previous 24 hours

Time TempWeatherWind HumidityBarometerVisibility
10:55 PM
Tue, Dec 1
54 °FOvercast.16 mph82%30.24 "HgN/A
10:25 PM54 °FOvercast.17 mph82%30.24 "HgN/A
9:55 PM55 °FOvercast.17 mph77%30.24 "HgN/A
9:25 PM54 °FOvercast.17 mph82%30.24 "HgN/A
8:55 PM54 °FOvercast.18 mph88%30.24 "HgN/A
8:25 PM54 °FOvercast.18 mph88%30.21 "HgN/A
7:55 PM54 °FOvercast.18 mph94%30.21 "Hg5 mi
7:25 PM52 °FPassing clouds.16 mph94%30.21 "Hg6 mi
6:55 PM52 °FPassing clouds.15 mph94%30.21 "Hg6 mi
6:25 PM54 °FPassing clouds.16 mph88%30.21 "HgN/A
5:55 PM54 °FClear.15 mph88%30.21 "HgN/A
5:25 PM54 °FPassing clouds.14 mph94%30.21 "HgN/A
4:55 PM55 °FOvercast.17 mph82%30.21 "HgN/A
4:25 PM54 °FCloudy.15 mph94%30.18 "HgN/A
3:55 PM55 °FMore clouds than sun.17 mph88%30.18 "HgN/A
3:25 PM55 °FPartly sunny.17 mph88%30.18 "HgN/A
2:55 PM54 °FMostly cloudy.14 mph100%30.18 "HgN/A
2:25 PM54 °FBroken clouds.13 mph94%30.18 "Hg5 mi
1:55 PM50 °FSprinkles. More clouds than sun.9 mph100%30.18 "Hg6 mi
1:25 PM50 °FDrizzle. Mostly cloudy.9 mph94%30.18 "Hg4 mi
12:55 PM48 °FLight rain. Broken clouds.8 mph100%30.18 "Hg2 mi
12:25 PM48 °FLight rain. Cloudy.7 mph100%30.21 "Hg1 mi
11:55 AM48 °FDrizzle. More clouds than sun.5 mph100%30.21 "Hg2 mi
11:25 AM48 °FDrizzle. Broken clouds.5 mph100%30.21 "Hg2 mi
10:55 AM48 °FSprinkles. Cloudy.6 mph94%30.18 "Hg2 mi
10:25 AM48 °FFog.6 mph94%30.18 "Hg2 mi
9:55 AM48 °FBroken clouds.6 mph94%30.18 "Hg6 mi
8:55 AM48 °FOvercast.6 mph94%30.18 "HgN/A
7:55 AM46 °FOvercast.5 mph87%30.15 "HgN/A
7:25 AM46 °FOvercast.3 mph93%30.15 "HgN/A
6:55 AM46 °FOvercast.2 mph93%30.15 "HgN/A
6:25 AM48 °FOvercast.3 mph82%30.12 "HgN/A
5:55 AM46 °FOvercast.3 mph93%30.12 "HgN/A
4:55 AM46 °FMostly cloudy.3 mph93%30.09 "HgN/A
4:25 AM46 °FOvercast.5 mph93%30.09 "HgN/A
3:55 AM46 °FMostly cloudy.5 mph93%30.07 "HgN/A
3:25 AM46 °FOvercast.3 mph93%30.07 "HgN/A
2:55 AM46 °FMostly cloudy.3 mph93%30.07 "HgN/A
2:25 AM46 °FPassing clouds.6 mph100%30.07 "HgN/A
1:55 AM46 °FPartly cloudy.7 mph93%30.04 "HgN/A
12:55 AM48 °FPartly cloudy.10 mph94%30.01 "HgN/A
12:25 AM50 °FPassing clouds.12 mph88%29.98 "HgN/A
Weather by CustomWeather, © 2015

See weather overviewHow to use our weather pages